Location: Unspecified
(58.7730°N, 5.8460°E)
Time: 23:23:04
(UTC+02:00)

Cosmos 1674 - Visible Passes

Search period start: 20 June 2018 00:00
Search period end: 30 June 2018 00:00
Orbit: 498 x 519 km, 82.5° (Epoch: 19 June)

Date Brightness Start Highest point End Pass type
(mag) Time Alt. Az. Time Alt. Az. Time Alt. Az.
20 Jun 5.6 01:22:51 10° W 01:24:41 13° NW 01:26:33 10° NNW visible
21 Jun 5.5 01:05:07 10° W 01:07:23 15° NW 01:09:41 10° NNW visible
22 Jun 5.4 00:47:30 10° W 00:50:06 17° WNW 00:52:44 10° NNW visible
23 Jun 5.3 00:29:56 10° WSW 00:32:50 20° WNW 00:35:44 10° N visible
24 Jun 5.1 00:12:27 10° WSW 00:15:34 23° WNW 00:18:42 10° N visible
29 Jun 6.1 00:24:49 10° WNW 00:25:56 11° NW 00:27:01 10° NNW visible
